This demonstration page uses our WeatherBlox Daily Observations layout. Learn more.

Left ArrowRight Arrow

41.55636, -103.73856

Hourly Observations for February 12, 2018

Temp ( °F °C ) Dew Point ( °F °C ) Humidity (%) Winds ( mph kmh ) Pressure ( in mb ) Visibility ( mi km ) Precip ( " mm )
12:38 am 00:38 Mostly Cloudy 11 -11.7 5 -15 77 77 ENE 17 28 30.45 1031 10 16 N/A
12:53 am 00:53 Cloudy 10 -12.2 5 -15 80 80 ENE 18 30 30.27 1025 10 16 N/A
1:53 am 01:53 Cloudy 10 -12.2 5 -15 80 80 ENE 21 33 30.28 1025 10 16 N/A
2:53 am 02:53 Cloudy with Light Snow 11 -11.7 5 -15 77 77 ENE 16 26 30.28 1026 8 13 N/A
3:53 am 03:53 Windy with Snow Likely 10 -12.2 5 -15 80 80 ENE 20 31 30.28 1025 9 14 N/A
4:53 am 04:53 Cloudy 11 -11.7 5 -15 77 77 E 16 26 30.31 1026 9 14 N/A
5:53 am 05:53 Cloudy 10 -12.2 5 -15 80 80 ENE 15 24 30.34 1027 10 16 N/A
6:31 am 06:31 Cloudy 10 -12.2 5 -15 80 80 E 15 24 30.53 1034 10 16 N/A
6:53 am 06:53 Cloudy 11 -11.7 6 -14.4 81 81 E 15 24 30.33 1027 10 16 N/A
7:53 am 07:53 Cloudy with Light Snow 11 -11.7 7 -13.9 84 84 E 13 20 30.36 1028 3 5 N/A
8:07 am 08:07 Cloudy with Light Snow 11 -11.7 7 -13.9 84 84 E 10 17 30.48 1032 3 4 N/A
8:53 am 08:53 Cloudy with Light Snow 12 -11.1 7 -13.9 80 80 E 10 17 30.36 1028 3 5 N/A
9:01 am 09:01 Cloudy with Light Snow 12 -11.1 7 -13.9 80 80 E 10 17 30.48 1032 3 4 N/A
9:11 am 09:11 Cloudy with Light Snow 12 -11.1 7 -13.9 80 80 E 13 20 30.48 1032 3 5 N/A
9:53 am 09:53 Cloudy with Light Snow 13 -10.6 7 -13.9 77 77 E 9 15 30.38 1029 3 4 N/A
10:02 am 10:02 Cloudy with Light Snow 13 -10.6 7 -13.9 77 77 E 9 15 30.50 1033 3 5 N/A
10:53 am 10:53 Cloudy 14 -10 8 -13.3 77 77 E 9 15 30.36 1028 8 13 N/A
11:53 am 11:53 Cloudy with Haze 15 -9.4 8 -13.3 74 74 E 12 19 30.34 1027 6 10 N/A
12:53 pm 12:53 Cloudy 18 -7.8 9 -12.8 68 68 ESE 12 19 30.29 1026 9 14 N/A
1:53 pm 13:53 Cloudy 19 -7.2 11 -11.7 71 71 E 12 19 30.28 1025 9 14 N/A
2:53 pm 14:53 Cloudy 20 -6.7 12 -11.1 71 71 ESE 5 7 30.27 1025 7 11 N/A
3:53 pm 15:53 Cloudy 21 -6.1 13 -10.6 71 71 N N/A 30.26 1025 10 16 N/A
4:53 pm 16:53 Cloudy 21 -6.1 13 -10.6 71 71 WNW 6 9 30.28 1025 10 16 N/A
5:53 pm 17:53 Cloudy 21 -6.1 13 -10.6 71 71 NW 5 7 30.29 1026 10 16 N/A
6:53 pm 18:53 Cloudy 21 -6.1 14 -10 74 74 N N/A 30.31 1026 10 16 N/A
7:24 pm 19:24 Cloudy 21 -6 16 -9 80 80 SE 5 7 30.36 1028 10 16 N/A
7:53 pm 19:53 Cloudy 22 -5.6 17 -8.3 82 82 SE 12 19 30.30 1026 10 16 N/A
8:00 pm 20:00 Cloudy 22 -5.6 17 -8.3 82 82 SE 13 20 30.33 1027 10 16 N/A
8:08 pm 20:08 Cloudy 21 -6 18 -8 86 86 SE 13 20 30.36 1028 10 16 N/A
8:22 pm 20:22 Cloudy 21 -6.1 17 -8.3 85 85 SE 13 20 30.36 1028 10 16 N/A
8:29 pm 20:29 Cloudy 20 -6.7 17 -8.3 89 89 SE 15 24 30.36 1028 10 16 N/A
8:53 pm 20:53 Cloudy with Light Snow 20 -6.7 17 -8.3 89 89 SE 15 24 30.31 1026 4 6 N/A
9:21 pm 21:21 Cloudy with Mist and Fog 19 -7.2 16 -8.9 88 88 SE 17 28 30.36 1028 5 8 N/A
9:53 pm 21:53 Cloudy 19 -7.2 16 -8.9 88 88 SE 16 26 30.28 1026 8 13 N/A
10:53 pm 22:53 Cloudy 19 -7.2 17 -8.3 92 92 SSE 3 6 30.29 1026 8 13 N/A
11:00 pm 23:00 Cloudy 19 -7 16 -9 86 86 SSE 3 6 30.36 1028 8 13 N/A
11:53 pm 23:53 Cloudy 19 -7.2 16 -8.9 88 88 ESE 5 7 30.29 1026 9 14 N/A

Powered by AerisWeather